DAL1530 KRDU-KATL

Flight info

Callsign DAL1530
Flight time 1h 1m
Altitude 34000
Route SHPRD4 SHPRD DCT LEAVI OZZZI2
Aircraft A321/M-SDE3FGHIRWY/LB1

Departure

Time 2026-05-07 00:54
Airport Raleigh-Durham International Airport (KRDU)

Arrival

Time 2026-05-07 01:55
Airport Hartsfield Jackson Atlanta International Airport (KATL)
Time Latitude Longitude Altitude Speed Heading
2026-05-07 00:09 35.87757 -78.79417 393 ft 0 kts 134°
2026-05-07 00:36 35.87764 -78.79425 393 ft 4 kts 135°
2026-05-07 00:36 35.87780 -78.79450 393 ft 4 kts 109°
2026-05-07 00:36 35.87783 -78.79481 392 ft 4 kts 66°
2026-05-07 00:36 35.87774 -78.79497 392 ft 1 kts 45°
2026-05-07 00:37 35.87773 -78.79499 392 ft 0 kts 45°
2026-05-07 00:38 35.87776 -78.79495 392 ft 4 kts 45°
2026-05-07 00:39 35.87818 -78.79443 393 ft 13 kts 45°
2026-05-07 00:39 35.87908 -78.79330 393 ft 23 kts 45°
2026-05-07 00:39 35.88032 -78.79177 393 ft 27 kts 45°
2026-05-07 00:39 35.88136 -78.79045 393 ft 18 kts 46°
2026-05-07 00:40 35.88229 -78.78929 392 ft 20 kts 45°
2026-05-07 00:40 35.88324 -78.78812 396 ft 18 kts 45°
2026-05-07 00:40 35.88403 -78.78714 393 ft 11 kts 44°
2026-05-07 00:40 35.88464 -78.78639 396 ft 17 kts 45°
2026-05-07 00:41 35.88560 -78.78520 393 ft 22 kts 45°
2026-05-07 00:41 35.88632 -78.78432 392 ft 6 kts 44°
2026-05-07 00:41 35.88634 -78.78429 393 ft 0 kts 44°
2026-05-07 00:43 35.88650 -78.78410 396 ft 8 kts 44°
2026-05-07 00:44 35.88706 -78.78340 394 ft 14 kts 45°
2026-05-07 00:44 35.88793 -78.78233 394 ft 19 kts 45°
2026-05-07 00:44 35.88884 -78.78120 394 ft 18 kts 45°
2026-05-07 00:44 35.88965 -78.78012 395 ft 17 kts 57°
2026-05-07 00:45 35.89004 -78.77900 395 ft 12 kts 59°
2026-05-07 00:45 35.89059 -78.77826 391 ft 11 kts 43°
2026-05-07 00:45 35.89109 -78.77765 393 ft 9 kts 47°
2026-05-07 00:45 35.89151 -78.77710 394 ft 8 kts 46°
2026-05-07 00:46 35.89186 -78.77668 394 ft 6 kts 44°
2026-05-07 00:46 35.89199 -78.77656 394 ft 0 kts 32°
2026-05-07 00:46 35.89205 -78.77652 397 ft 2 kts 24°
2026-05-07 00:46 35.89206 -78.77652 398 ft 0 kts 22°
2026-05-07 00:48 35.89218 -78.77650 397 ft 4 kts
2026-05-07 00:48 35.89251 -78.77669 405 ft 7 kts 322°
2026-05-07 00:49 35.89284 -78.77707 413 ft 4 kts 315°
2026-05-07 00:49 35.89288 -78.77711 414 ft 0 kts 315°
2026-05-07 00:49 35.89296 -78.77722 416 ft 2 kts 315°
2026-05-07 00:49 35.89298 -78.77723 416 ft 0 kts 315°
2026-05-07 00:52 35.89315 -78.77745 418 ft 10 kts 315°
2026-05-07 00:52 35.89343 -78.77851 418 ft 16 kts 243°
2026-05-07 00:53 35.89314 -78.77892 414 ft 0 kts 226°
2026-05-07 00:53 35.89313 -78.77894 411 ft 2 kts 226°
2026-05-07 00:53 35.89203 -78.78032 410 ft 56 kts 225°
2026-05-07 00:53 35.88769 -78.78562 408 ft 116 kts 225°
2026-05-07 00:54 35.88077 -78.79412 392 ft 162 kts 225°
2026-05-07 00:54 35.87233 -78.80463 740 ft 173 kts 225°
2026-05-07 00:54 35.86399 -78.81484 1450 ft 166 kts 224°
2026-05-07 00:54 35.85576 -78.82461 2045 ft 164 kts 225°
2026-05-07 00:55 35.84705 -78.83483 2270 ft 183 kts 225°
2026-05-07 00:55 35.83725 -78.84625 2410 ft 204 kts 224°
2026-05-07 00:55 35.82636 -78.85901 2532 ft 229 kts 225°
2026-05-07 00:55 35.81441 -78.87294 3039 ft 241 kts 225°
2026-05-07 00:56 35.80379 -78.88880 3751 ft 242 kts 244°
2026-05-07 00:56 35.79976 -78.90881 4488 ft 244 kts 269°
2026-05-07 00:56 35.80138 -78.92964 5274 ft 245 kts 275°
2026-05-07 00:56 35.80338 -78.95048 6028 ft 246 kts 275°
2026-05-07 00:57 35.80537 -78.97146 6739 ft 248 kts 275°
2026-05-07 00:57 35.80736 -78.99268 7407 ft 250 kts 275°
2026-05-07 00:57 35.80938 -79.01410 8065 ft 253 kts 275°
2026-05-07 00:57 35.81139 -79.03577 8725 ft 256 kts 275°
2026-05-07 00:58 35.81341 -79.05768 9378 ft 259 kts 275°
2026-05-07 00:58 35.81545 -79.07976 10043 ft 260 kts 275°
2026-05-07 00:58 35.81755 -79.10257 10308 ft 278 kts 275°
2026-05-07 00:58 35.81977 -79.12713 10430 ft 299 kts 275°
2026-05-07 00:59 35.82450 -79.18002 11242 ft 316 kts 275°
2026-05-07 00:59 35.82692 -79.20700 11875 ft 318 kts 275°
2026-05-07 00:59 35.82937 -79.23422 12466 ft 321 kts 275°
2026-05-07 01:00 35.83185 -79.26157 13088 ft 323 kts 275°
2026-05-07 01:00 35.83433 -79.28909 13706 ft 325 kts 274°
2026-05-07 01:00 35.83420 -79.31694 14247 ft 326 kts 265°
2026-05-07 01:00 35.83205 -79.34486 14811 ft 328 kts 265°
2026-05-07 01:01 35.82991 -79.37285 15385 ft 329 kts 265°
2026-05-07 01:01 35.82779 -79.40097 15939 ft 331 kts 266°
2026-05-07 01:01 35.82639 -79.41965 16302 ft 332 kts 266°
2026-05-07 01:01 35.82425 -79.44802 16884 ft 333 kts 266°
2026-05-07 01:02 35.82208 -79.47639 17481 ft 333 kts 266°
2026-05-07 01:02 35.81989 -79.50489 18052 ft 334 kts 266°
2026-05-07 01:02 35.81761 -79.53336 18554 ft 335 kts 264°
2026-05-07 01:02 35.81314 -79.56167 18991 ft 338 kts 261°
2026-05-07 01:03 35.80831 -79.59013 19431 ft 340 kts 261°
2026-05-07 01:03 35.80346 -79.61872 19859 ft 342 kts 261°
2026-05-07 01:03 35.79858 -79.64747 20225 ft 345 kts 261°
2026-05-07 01:03 35.79361 -79.67657 20592 ft 348 kts 261°
2026-05-07 01:04 35.78862 -79.70584 21007 ft 351 kts 261°
2026-05-07 01:04 35.78354 -79.73533 21432 ft 353 kts 260°
2026-05-07 01:04 35.77843 -79.76492 21855 ft 354 kts 260°
2026-05-07 01:04 35.77330 -79.79470 22279 ft 356 kts 260°
2026-05-07 01:05 35.76817 -79.82456 22743 ft 356 kts 260°
2026-05-07 01:05 35.76305 -79.85437 23205 ft 357 kts 261°
2026-05-07 01:05 35.75797 -79.88398 23598 ft 359 kts 261°
2026-05-07 01:05 35.75279 -79.91415 23922 ft 361 kts 260°
2026-05-07 01:06 35.74759 -79.94440 24246 ft 362 kts 260°
2026-05-07 01:06 35.74234 -79.97485 24571 ft 364 kts 260°
2026-05-07 01:06 35.73709 -80.00538 24895 ft 366 kts 260°
2026-05-07 01:06 35.73180 -80.03604 25201 ft 367 kts 260°
2026-05-07 01:07 35.72643 -80.06689 25506 ft 369 kts 260°
2026-05-07 01:07 35.72103 -80.09784 25801 ft 371 kts 260°
2026-05-07 01:07 35.71560 -80.12892 26112 ft 373 kts 260°
2026-05-07 01:07 35.71012 -80.16018 26416 ft 374 kts 260°
2026-05-07 01:08 35.70463 -80.19147 26795 ft 374 kts 259°
2026-05-07 01:08 35.69913 -80.22282 27161 ft 374 kts 259°
2026-05-07 01:08 35.69363 -80.25413 27482 ft 376 kts 259°
2026-05-07 01:08 35.68811 -80.28560 27771 ft 377 kts 259°
2026-05-07 01:09 35.68257 -80.31721 28062 ft 379 kts 259°
2026-05-07 01:09 35.67699 -80.34897 28352 ft 380 kts 259°
2026-05-07 01:09 35.67137 -80.38077 28616 ft 382 kts 259°
2026-05-07 01:09 35.66565 -80.41283 28871 ft 384 kts 259°
2026-05-07 01:10 35.65993 -80.44487 29138 ft 385 kts 259°
2026-05-07 01:10 35.65362 -80.47698 29388 ft 388 kts 255°
2026-05-07 01:10 35.64377 -80.50805 29622 ft 391 kts 251°
2026-05-07 01:10 35.63333 -80.53893 29877 ft 393 kts 251°
2026-05-07 01:11 35.62288 -80.56992 30173 ft 392 kts 251°
2026-05-07 01:11 35.61244 -80.60087 30490 ft 390 kts 251°
2026-05-07 01:11 35.60208 -80.63154 30900 ft 386 kts 251°
2026-05-07 01:11 35.59181 -80.66183 31308 ft 383 kts 251°
2026-05-07 01:12 35.58164 -80.69176 31702 ft 379 kts 251°
2026-05-07 01:12 35.57151 -80.72152 32112 ft 375 kts 251°
2026-05-07 01:12 35.56149 -80.75092 32528 ft 372 kts 251°
2026-05-07 01:12 35.55156 -80.78011 32926 ft 368 kts 251°
2026-05-07 01:13 35.54174 -80.80893 33317 ft 365 kts 251°
2026-05-07 01:13 35.53201 -80.83747 33706 ft 361 kts 251°
2026-05-07 01:13 35.52237 -80.86578 33970 ft 359 kts 251°
2026-05-07 01:14 35.50338 -80.92135 34016 ft 349 kts 251°
2026-05-07 01:14 35.48443 -80.97692 33997 ft 359 kts 251°
2026-05-07 01:15 35.46500 -81.03403 34009 ft 365 kts 251°
2026-05-07 01:15 35.44528 -81.09146 34009 ft 365 kts 251°
2026-05-07 01:16 35.42551 -81.14873 33953 ft 366 kts 250°
2026-05-07 01:16 35.40550 -81.20694 34009 ft 376 kts 250°
2026-05-07 01:17 35.38501 -81.26644 34000 ft 380 kts 250°
2026-05-07 01:17 35.36449 -81.32575 33985 ft 375 kts 250°
2026-05-07 01:18 35.34412 -81.38434 33977 ft 373 kts 250°
2026-05-07 01:18 35.32378 -81.44286 33962 ft 373 kts 250°
2026-05-07 01:19 35.30345 -81.50142 33958 ft 373 kts 250°
2026-05-07 01:19 35.28308 -81.55995 33951 ft 374 kts 250°
2026-05-07 01:20 35.26266 -81.61840 34011 ft 374 kts 250°
2026-05-07 01:20 35.24225 -81.67677 34027 ft 373 kts 250°
2026-05-07 01:21 35.22189 -81.73460 34039 ft 372 kts 250°
2026-05-07 01:21 35.20141 -81.79275 33968 ft 375 kts 250°
2026-05-07 01:22 35.18062 -81.85198 33954 ft 378 kts 250°
2026-05-07 01:22 35.15988 -81.91089 33941 ft 380 kts 250°
2026-05-07 01:23 35.13875 -81.97073 33946 ft 382 kts 250°
2026-05-07 01:23 35.11770 -82.03015 33955 ft 382 kts 250°
2026-05-07 01:24 35.09656 -82.08985 33960 ft 383 kts 250°
2026-05-07 01:24 35.07546 -82.14940 33994 ft 383 kts 250°
2026-05-07 01:25 35.05423 -82.20913 34006 ft 383 kts 250°
2026-05-07 01:25 35.03302 -82.26864 34014 ft 383 kts 250°
2026-05-07 01:26 35.01024 -82.32759 34015 ft 386 kts 244°
2026-05-07 01:26 34.98301 -82.38415 34008 ft 388 kts 244°
2026-05-07 01:27 34.95559 -82.44111 34016 ft 390 kts 244°
2026-05-07 01:27 34.92812 -82.49827 34019 ft 391 kts 244°
2026-05-07 01:28 34.90049 -82.55536 34001 ft 392 kts 244°
2026-05-07 01:28 34.87296 -82.61211 34019 ft 392 kts 243°
2026-05-07 01:29 34.84283 -82.66769 34021 ft 394 kts 239°
2026-05-07 01:29 34.81053 -82.72178 34023 ft 395 kts 239°
2026-05-07 01:30 34.77823 -82.77581 33771 ft 396 kts 239°
2026-05-07 01:30 34.76245 -82.80315 33447 ft 394 kts 240°
2026-05-07 01:30 34.74694 -82.83074 33195 ft 396 kts 240°
2026-05-07 01:30 34.73148 -82.85850 32928 ft 397 kts 240°
2026-05-07 01:31 34.71587 -82.88655 31990 ft 403 kts 240°
2026-05-07 01:31 34.69999 -82.91495 31129 ft 408 kts 240°
2026-05-07 01:31 34.68409 -82.94316 30676 ft 402 kts 240°
2026-05-07 01:31 34.66824 -82.97119 29876 ft 405 kts 240°
2026-05-07 01:32 34.65225 -82.99940 29132 ft 404 kts 239°
2026-05-07 01:32 34.63636 -83.02738 28483 ft 402 kts 240°
2026-05-07 01:32 34.62055 -83.05524 27847 ft 399 kts 240°
2026-05-07 01:32 34.60480 -83.08301 27086 ft 399 kts 240°
2026-05-07 01:33 34.58908 -83.11073 26365 ft 399 kts 240°
2026-05-07 01:33 34.57332 -83.13846 25663 ft 399 kts 240°
2026-05-07 01:33 34.55768 -83.16591 25302 ft 390 kts 239°
2026-05-07 01:33 34.54252 -83.19240 25105 ft 373 kts 240°
2026-05-07 01:34 34.52798 -83.21772 24573 ft 361 kts 240°
2026-05-07 01:34 34.51387 -83.24238 24071 ft 352 kts 240°
2026-05-07 01:34 34.50000 -83.26669 23610 ft 349 kts 240°
2026-05-07 01:34 34.48631 -83.29080 23077 ft 345 kts 240°
2026-05-07 01:35 34.47280 -83.31452 22620 ft 340 kts 240°
2026-05-07 01:35 34.45937 -83.33782 22169 ft 335 kts 240°
2026-05-07 01:35 34.44603 -83.36076 21662 ft 331 kts 239°
2026-05-07 01:35 34.43279 -83.38342 21218 ft 327 kts 239°
2026-05-07 01:36 34.41971 -83.40580 20771 ft 324 kts 239°
2026-05-07 01:36 34.40692 -83.42770 20328 ft 322 kts 239°
2026-05-07 01:36 34.39407 -83.44971 19894 ft 319 kts 239°
2026-05-07 01:36 34.38127 -83.47163 19460 ft 317 kts 239°
2026-05-07 01:37 34.36859 -83.49336 19026 ft 316 kts 239°
2026-05-07 01:37 34.35593 -83.51506 18588 ft 314 kts 238°
2026-05-07 01:37 34.34335 -83.53661 18153 ft 313 kts 239°
2026-05-07 01:37 34.33081 -83.55804 17694 ft 311 kts 238°
2026-05-07 01:38 34.31840 -83.57928 17268 ft 308 kts 238°
2026-05-07 01:38 34.30608 -83.60035 16823 ft 310 kts 239°
2026-05-07 01:38 34.29347 -83.62169 16427 ft 314 kts 236°
2026-05-07 01:38 34.27798 -83.64062 16009 ft 318 kts 226°
2026-05-07 01:39 34.26140 -83.65820 15590 ft 317 kts 226°
2026-05-07 01:39 34.24469 -83.67596 15149 ft 315 kts 226°
2026-05-07 01:39 34.22849 -83.69317 14743 ft 313 kts 225°
2026-05-07 01:39 34.21217 -83.71053 14350 ft 311 kts 225°
2026-05-07 01:40 34.19598 -83.72776 13932 ft 310 kts 225°
2026-05-07 01:40 34.17982 -83.74494 13480 ft 308 kts 224°
2026-05-07 01:40 34.16379 -83.76195 13051 ft 305 kts 224°
2026-05-07 01:40 34.14795 -83.77875 12631 ft 303 kts 224°
2026-05-07 01:41 34.13224 -83.79546 12270 ft 298 kts 224°
2026-05-07 01:41 34.11695 -83.81170 12138 ft 287 kts 225°
2026-05-07 01:41 34.10226 -83.82726 11997 ft 275 kts 225°
2026-05-07 01:41 34.08821 -83.84214 12005 ft 266 kts 225°
2026-05-07 01:42 34.07441 -83.85695 12013 ft 265 kts 225°
2026-05-07 01:42 34.06072 -83.87175 11861 ft 265 kts 225°
2026-05-07 01:42 34.04697 -83.88662 11408 ft 266 kts 225°
2026-05-07 01:42 34.03316 -83.90146 11014 ft 266 kts 225°
2026-05-07 01:43 34.01938 -83.91621 10656 ft 264 kts 225°
2026-05-07 01:43 34.00570 -83.93084 10356 ft 261 kts 225°
2026-05-07 01:43 33.99216 -83.94534 10086 ft 260 kts 225°
2026-05-07 01:43 33.97786 -83.95853 9834 ft 262 kts 213°
2026-05-07 01:44 33.96062 -83.96618 9556 ft 268 kts 196°
2026-05-07 01:44 33.94174 -83.96714 9282 ft 274 kts 185°
2026-05-07 01:44 33.92273 -83.96628 9007 ft 273 kts 185°
2026-05-07 01:44 33.90405 -83.96760 8732 ft 268 kts 193°
2026-05-07 01:45 33.88566 -83.97053 8459 ft 265 kts 194°
2026-05-07 01:45 33.86743 -83.97362 8184 ft 264 kts 194°
2026-05-07 01:45 33.84927 -83.97674 7908 ft 264 kts 194°
2026-05-07 01:45 33.83115 -83.97988 7638 ft 262 kts 194°
2026-05-07 01:46 33.81318 -83.98304 7325 ft 260 kts 194°
2026-05-07 01:46 33.80139 -83.98514 7075 ft 259 kts 194°
2026-05-07 01:46 33.77753 -83.98950 6543 ft 259 kts 194°
2026-05-07 01:46 33.76570 -83.99167 6287 ft 259 kts 194°
2026-05-07 01:47 33.74802 -83.99498 6017 ft 255 kts 194°
2026-05-07 01:47 33.73078 -83.99829 5990 ft 243 kts 194°
2026-05-07 01:47 33.71454 -84.00133 5913 ft 231 kts 194°
2026-05-07 01:47 33.69907 -84.00418 5790 ft 220 kts 196°
2026-05-07 01:48 33.68583 -84.01120 5588 ft 203 kts 226°
2026-05-07 01:48 33.67774 -84.02483 5272 ft 202 kts 242°
2026-05-07 01:48 33.67156 -84.03988 5032 ft 198 kts 243°
2026-05-07 01:48 33.66588 -84.05505 4995 ft 199 kts 244°
2026-05-07 01:49 33.66052 -84.06968 5014 ft 183 kts 244°
2026-05-07 01:49 33.65565 -84.08317 4991 ft 171 kts 244°
2026-05-07 01:49 33.65106 -84.09628 4991 ft 171 kts 251°
2026-05-07 01:49 33.64968 -84.11055 4995 ft 173 kts 262°
2026-05-07 01:50 33.64937 -84.12501 4993 ft 174 kts 263°
2026-05-07 01:50 33.64928 -84.13957 4989 ft 175 kts 264°
2026-05-07 01:50 33.64927 -84.15416 4988 ft 175 kts 264°
2026-05-07 01:50 33.64929 -84.16875 4975 ft 175 kts 264°
2026-05-07 01:51 33.64932 -84.18317 4749 ft 171 kts 264°
2026-05-07 01:51 33.64934 -84.19738 4383 ft 171 kts 265°
2026-05-07 01:51 33.64937 -84.21168 4042 ft 171 kts 264°
2026-05-07 01:51 33.64938 -84.22591 3908 ft 173 kts 264°
2026-05-07 01:52 33.64940 -84.24040 3678 ft 174 kts 264°
2026-05-07 01:52 33.64943 -84.25496 3453 ft 174 kts 263°
2026-05-07 01:52 33.64945 -84.26939 3225 ft 171 kts 263°
2026-05-07 01:52 33.64949 -84.28314 3030 ft 157 kts 263°
2026-05-07 01:53 33.64950 -84.29610 2821 ft 152 kts 263°
2026-05-07 01:53 33.64951 -84.30856 2638 ft 147 kts 263°
2026-05-07 01:53 33.64951 -84.32088 2437 ft 146 kts 262°
2026-05-07 01:53 33.64952 -84.33296 2247 ft 144 kts 263°
2026-05-07 01:54 33.64952 -84.34494 2064 ft 143 kts 263°
2026-05-07 01:54 33.64952 -84.35683 1873 ft 142 kts 264°
2026-05-07 01:54 33.64954 -84.36863 1702 ft 146 kts 262°
2026-05-07 01:54 33.64953 -84.38079 1461 ft 147 kts 267°
2026-05-07 01:55 33.64953 -84.39317 1309 ft 149 kts 266°
2026-05-07 01:55 33.64955 -84.40559 1113 ft 149 kts 264°
2026-05-07 01:55 33.64951 -84.41762 1007 ft 126 kts 268°
2026-05-07 01:55 33.64953 -84.42448 1006 ft 41 kts 270°
2026-05-07 01:56 33.64932 -84.42648 1007 ft 14 kts 251°
2026-05-07 01:56 33.64896 -84.42753 1007 ft 13 kts 242°
2026-05-07 01:56 33.64846 -84.42840 1006 ft 12 kts 234°
2026-05-07 01:56 33.64805 -84.42925 1006 ft 11 kts 250°
2026-05-07 01:57 33.64791 -84.43011 1007 ft 10 kts 266°
2026-05-07 01:57 33.64785 -84.43089 1007 ft 9 kts 252°
2026-05-07 01:57 33.64725 -84.43131 1007 ft 15 kts 186°
2026-05-07 01:57 33.64631 -84.43209 1008 ft 17 kts 238°
2026-05-07 01:58 33.64565 -84.43300 1007 ft 14 kts 240°
2026-05-07 01:58 33.64526 -84.43404 1007 ft 13 kts 224°
2026-05-07 01:58 33.64463 -84.43471 1006 ft 12 kts 254°
2026-05-07 01:58 33.64459 -84.43567 1006 ft 11 kts 269°
2026-05-07 01:59 33.64459 -84.43663 1006 ft 12 kts 267°
2026-05-07 01:59 33.64405 -84.43722 1006 ft 11 kts 185°
2026-05-07 01:59 33.64308 -84.43722 1006 ft 18 kts 180°
2026-05-07 01:59 33.64152 -84.43722 1006 ft 24 kts 179°
2026-05-07 02:00 33.64038 -84.43721 1006 ft 11 kts 179°
2026-05-07 02:00 33.63977 -84.43721 1006 ft 6 kts 179°
2026-05-07 02:00 33.63960 -84.43698 1006 ft 3 kts 104°
2026-05-07 02:00 33.63959 -84.43671 1006 ft 4 kts 92°
2026-05-07 02:01 33.63958 -84.43652 1006 ft 0 kts 92°